WXM80 ListenWXM80 Stop

You find our weather info also at:

UK Metoffice

WeatherCloud

Weather Underground

Northeastern Weather Network

AWEKAS

Citizen Weather Observer Program (CWOP)

HAMweather, WeatherForYou, PWS Weather


Weather Underground History page Text

Daily Summary for January 5, 2018 Units:  Metric    English   Both
« Previous Day
Next Day »
Daily Weekly Monthly Yearly Custom
  High: Low: Average:
Temperature: -6.8 °C -12.2 °C -10.4 °C
Dew Point: -7.9 °C -17.9 °C -13.9 °C
Humidity: 92 % 61 % 76 %
Wind Speed: 28.5 km/h 7.9 km/h 16.6 km/h
Wind Gust: 51.8 km/h - -
Wind:- - West
Pressure: 1016.8 hPa 998.5 hPa -
Precipitation: 0 mm    
Historical Graphs
 
 
Tabular Data for January 5, 2018
Time Temperature Dew Point Pressure Wind Wind Speed Wind Gust Humidity Rainfall Rate (Hourly)
00:01 -6.8 °C -7.9 °C 998.5 hPa NNW 15.4 km/h 29.6 km/h 92 % 0 mm
00:02 -6.8 °C -7.9 °C 998.5 hPa West 10.5 km/h 31.5 km/h 92 % 0 mm
00:07 -6.8 °C -7.9 °C 998.5 hPa WNW 14.5 km/h 25.9 km/h 92 % 0 mm
00:12 -6.8 °C -8.1 °C 998.5 hPa WNW 15.1 km/h 29.6 km/h 91 % 0 mm
00:14 -6.9 °C -8.1 °C 998.5 hPa SW 15.6 km/h 25.9 km/h 91 % 0 mm
00:19 -6.9 °C -8.2 °C 998.5 hPa WNW 17.5 km/h 31.5 km/h 91 % 0 mm
00:20 -7 °C -8.2 °C 998.5 hPa West 12.7 km/h 35.2 km/h 91 % 0 mm
00:23 -7 °C -8.2 °C 998.9 hPa West 22.5 km/h 37 km/h 91 % 0 mm
00:26 -7.1 °C -8.3 °C 998.9 hPa WNW 18.8 km/h 35.2 km/h 91 % 0 mm
00:32 -7.1 °C -8.3 °C 998.9 hPa NW 15.1 km/h 31.5 km/h 91 % 0 mm
00:34 -7.2 °C -8.4 °C 998.9 hPa West 13.8 km/h 27.8 km/h 91 % 0 mm
00:39 -7.2 °C -8.4 °C 999.2 hPa West 16.3 km/h 27.8 km/h 91 % 0 mm
00:40 -7.2 °C -8.4 °C 999.2 hPa WNW 16.1 km/h 31.5 km/h 91 % 0 mm
00:45 -7.3 °C -8.5 °C 999.2 hPa WNW 11.6 km/h 29.6 km/h 91 % 0 mm
00:50 -7.3 °C -8.6 °C 999.2 hPa WNW 27.5 km/h 37 km/h 91 % 0 mm
00:56 -7.4 °C -8.8 °C 999.2 hPa WNW 17.7 km/h 35.2 km/h 90 % 0 mm
01:01 -7.5 °C -8.8 °C 999.2 hPa WSW 18.2 km/h 35.2 km/h 90 % 0 mm
01:07 -7.6 °C -8.9 °C 999.2 hPa SW 19.8 km/h 40.7 km/h 90 % 0 mm
01:13 -7.6 °C -8.9 °C 999.5 hPa West 17.2 km/h 37 km/h 90 % 0 mm
01:18 -7.7 °C -9 °C 999.5 hPa WSW 11.9 km/h 16.1 km/h 90 % 0 mm
01:22 -7.7 °C -9 °C 999.5 hPa West 15.9 km/h 35.4 km/h 90 % 0 mm
01:27 -7.8 °C -9.1 °C 999.9 hPa WSW 16.1 km/h 33.3 km/h 90 % 0 mm
01:32 -7.8 °C -9.2 °C 999.5 hPa West 17.2 km/h 27.8 km/h 90 % 0 mm
01:35 -7.9 °C -9.4 °C 999.5 hPa WNW 19.6 km/h 31.5 km/h 89 % 0 mm
01:40 -7.9 °C -9.4 °C 999.9 hPa West 17.9 km/h 35.2 km/h 89 % 0 mm
01:45 -8 °C -9.5 °C 1000.2 hPa NW 15.1 km/h 29 km/h 89 % 0 mm
01:46 -8 °C -9.5 °C 999.9 hPa West 18.5 km/h 29.6 km/h 89 % 0 mm
01:47 -8.1 °C -9.6 °C 999.9 hPa WNW 12.4 km/h 29.6 km/h 89 % 0 mm
01:52 -8.1 °C -9.6 °C 1000.2 hPa NW 12.1 km/h 41.8 km/h 89 % 0 mm
01:57 -8.1 °C -9.6 °C 999.9 hPa West 24.3 km/h 42.6 km/h 89 % 0 mm
02:02 -8.2 °C -9.7 °C 1000.2 hPa WNW 23.8 km/h 44.4 km/h 89 % 0 mm
02:05 -8.3 °C -9.8 °C 1000.2 hPa West 14.3 km/h 29.6 km/h 89 % 0 mm
02:11 -8.3 °C -9.8 °C 1000.2 hPa West 16.1 km/h 38.6 km/h 89 % 0 mm
02:16 -8.4 °C -9.9 °C 1000.2 hPa WSW 16.1 km/h 27.8 km/h 89 % 0 mm
02:19 -8.5 °C -10.1 °C 1000.6 hPa NW 28.5 km/h 37 km/h 88 % 0 mm
02:24 -8.6 °C -10.1 °C 1000.6 hPa NW 15.9 km/h 29.6 km/h 89 % 0 mm
02:29 -8.7 °C -10.2 °C 1000.6 hPa West 18.2 km/h 35.4 km/h 89 % 0 mm
02:34 -8.7 °C -10.3 °C 1000.6 hPa SW 15.6 km/h 31.5 km/h 88 % 0 mm
02:39 -8.8 °C -10.4 °C 1000.6 hPa NNW 21.4 km/h 40.7 km/h 88 % 0 mm
02:44 -8.9 °C -10.5 °C 1001.2 hPa SW 16.7 km/h 33.3 km/h 88 % 0 mm
02:48 -8.9 °C -10.6 °C 1001.2 hPa West 21.6 km/h 38.9 km/h 88 % 0 mm
02:53 -8.9 °C -10.6 °C 1000.9 hPa NW 18.2 km/h 44.4 km/h 88 % 0 mm
02:56 -9 °C -10.6 °C 1000.9 hPa West 13.4 km/h 29.6 km/h 88 % 0 mm
02:57 -9 °C -10.6 °C 1001.2 hPa West 15 km/h 33.3 km/h 88 % 0 mm
03:02 -9.1 °C -10.7 °C 1001.2 hPa NW 17.9 km/h 38.6 km/h 88 % 0 mm
03:07 -9.2 °C -10.8 °C 1001.2 hPa West 11.6 km/h 31.5 km/h 88 % 0 mm
03:09 -9.2 °C -10.8 °C 1001.2 hPa WNW 24.6 km/h 42.6 km/h 88 % 0 mm
03:14 -9.3 °C -10.9 °C 1001.2 hPa West 23.7 km/h 38.9 km/h 88 % 0 mm
03:15 -9.3 °C -10.9 °C 1001.2 hPa WNW 16.9 km/h 31.5 km/h 88 % 0 mm
03:17 -9.3 °C -10.9 °C 1001.2 hPa WSW 20.4 km/h 35.2 km/h 88 % 0 mm
03:22 -9.4 °C -11 °C 1001.6 hPa West 19.3 km/h 40.7 km/h 88 % 0 mm
03:27 -9.4 °C -11.1 °C 1001.2 hPa WNW 13.5 km/h 37 km/h 88 % 0 mm
03:30 -9.4 °C -11.1 °C 1001.2 hPa West 17.4 km/h 30.6 km/h 88 % 0 mm
03:35 -9.5 °C -11.1 °C 1001.2 hPa NW 14.5 km/h 14.8 km/h 88 % 0 mm
03:39 -9.5 °C -11.1 °C 1001.6 hPa WNW 13.7 km/h 25.9 km/h 88 % 0 mm
03:44 -9.5 °C -11.1 °C 1001.9 hPa WNW 14 km/h 20.9 km/h 88 % 0 mm
03:46 -9.5 °C -11.1 °C 1001.6 hPa West 19.2 km/h 35.2 km/h 88 % 0 mm
03:51 -9.6 °C -11.4 °C 1001.9 hPa SSW 18.3 km/h 33.3 km/h 87 % 0 mm
03:56 -9.7 °C -11.3 °C 1001.9 hPa WNW 20.1 km/h 38.6 km/h 88 % 0 mm
04:01 -9.8 °C -11.6 °C 1001.9 hPa West 10 km/h 29.6 km/h 87 % 0 mm
04:06 -9.8 °C -11.6 °C 1002.3 hPa WSW 14.3 km/h 31.5 km/h 87 % 0 mm
04:07 -9.8 °C -11.6 °C 1002.3 hPa SW 17.9 km/h 29.6 km/h 87 % 0 mm
04:12 -9.9 °C -11.7 °C 1002.3 hPa WNW 20.3 km/h 27.8 km/h 87 % 0 mm
04:17 -10 °C -11.8 °C 1002.6 hPa WNW 16.1 km/h 20.4 km/h 87 % 0 mm
04:22 -10.2 °C -11.9 °C 1002.6 hPa WNW 11.6 km/h 35.2 km/h 87 % 0 mm
04:28 -10.2 °C -11.9 °C 1002.6 hPa WNW 20 km/h 27.8 km/h 87 % 0 mm
04:32 -10.3 °C -12.2 °C 1002.9 hPa SW 16.4 km/h 42.6 km/h 86 % 0 mm
04:37 -10.3 °C -12.2 °C 1002.9 hPa NW 18.7 km/h 37 km/h 86 % 0 mm
04:42 -10.4 °C -12.3 °C 1002.6 hPa WNW 22.2 km/h 35.2 km/h 86 % 0 mm
04:47 -10.5 °C -12.4 °C 1002.9 hPa WNW 13.5 km/h 20.9 km/h 86 % 0 mm
04:50 -10.6 °C -12.4 °C 1002.9 hPa WSW 7.9 km/h 31.5 km/h 86 % 0 mm
04:56 -10.6 °C -12.3 °C 1002.9 hPa West 12.9 km/h 51.5 km/h 87 % 0 mm
04:57 -10.6 °C -12.5 °C 1002.9 hPa WSW 11.7 km/h 51.8 km/h 86 % 0 mm
05:02 -10.7 °C -12.6 °C 1003.3 hPa West 10.9 km/h 22.2 km/h 86 % 0 mm
05:03 -10.7 °C -12.6 °C 1003.3 hPa West 14.2 km/h 24.1 km/h 86 % 0 mm
05:08 -10.7 °C -12.6 °C 1003.3 hPa NNW 22.4 km/h 40.7 km/h 86 % 0 mm
05:13 -10.7 °C -12.6 °C 1003.3 hPa SW 12.1 km/h 27.8 km/h 86 % 0 mm
05:18 -10.8 °C -12.7 °C 1003.6 hPa WNW 9.3 km/h 37 km/h 86 % 0 mm
05:23 -10.8 °C -12.7 °C 1003.6 hPa West 18.8 km/h 29.6 km/h 86 % 0 mm
05:28 -10.9 °C -12.9 °C 1003.6 hPa SW 12.7 km/h 20.4 km/h 85 % 0 mm
05:34 -10.9 °C -12.9 °C 1003.9 hPa WNW 19.8 km/h 33.8 km/h 85 % 0 mm
05:38 -11 °C -13 °C 1003.9 hPa SW 10.8 km/h 24.1 km/h 85 % 0 mm
05:43 -11.1 °C -13.1 °C 1003.9 hPa West 11.6 km/h 27.8 km/h 85 % 0 mm
05:49 -11.2 °C -13.2 °C 1004.3 hPa WSW 13.5 km/h 27.4 km/h 85 % 0 mm
05:50 -11.2 °C -13.2 °C 1004.3 hPa NW 19.6 km/h 25.9 km/h 85 % 0 mm
05:56 -11.2 °C -13.2 °C 1004.3 hPa WNW 16.1 km/h 41.8 km/h 85 % 0 mm
05:59 -11.3 °C -13.3 °C 1004.3 hPa WNW 20 km/h 38.9 km/h 85 % 0 mm
06:04 -11.3 °C -13.3 °C 1004.6 hPa NW 15.3 km/h 35.2 km/h 85 % 0 mm
06:09 -11.4 °C -13.4 °C 1004.6 hPa WNW 22.5 km/h 46.3 km/h 85 % 0 mm
06:14 -11.4 °C -13.4 °C 1004.6 hPa WNW 12.6 km/h 25.9 km/h 85 % 0 mm
06:19 -11.4 °C -13.3 °C 1004.6 hPa West 12.4 km/h 31.5 km/h 86 % 0 mm
06:24 -11.5 °C -13.5 °C 1005 hPa NW 11.7 km/h 24.1 km/h 85 % 0 mm
06:28 -11.6 °C -13.6 °C 1005 hPa West 13.8 km/h 27.4 km/h 85 % 0 mm
06:33 -11.7 °C -13.7 °C 1005.3 hPa WSW 17.9 km/h 35.2 km/h 85 % 0 mm
06:34 -11.7 °C -13.7 °C 1005 hPa West 17.5 km/h 29 km/h 85 % 0 mm
06:39 -11.7 °C -13.7 °C 1005 hPa WNW 23.8 km/h 44.4 km/h 85 % 0 mm
06:43 -11.7 °C -13.7 °C 1005.3 hPa NW 18.2 km/h 42.6 km/h 85 % 0 mm
06:47 -11.7 °C -13.7 °C 1005.3 hPa WSW 8.9 km/h 42.6 km/h 85 % 0 mm
06:49 -11.7 °C -13.7 °C 1005.3 hPa WSW 14 km/h 29.6 km/h 85 % 0 mm
06:54 -11.7 °C -13.7 °C 1005.3 hPa WSW 22.9 km/h 33.8 km/h 85 % 0 mm
06:55 -11.7 °C -13.7 °C 1005.3 hPa West 17.5 km/h 38.9 km/h 85 % 0 mm
07:00 -11.8 °C -13.8 °C 1005.6 hPa WNW 20 km/h 29.6 km/h 85 % 0 mm
07:02 -11.8 °C -13.8 °C 1005.3 hPa West 19.5 km/h 35.2 km/h 85 % 0 mm
07:07 -11.8 °C -13.8 °C 1005.6 hPa WSW 16.1 km/h 33.3 km/h 85 % 0 mm
07:12 -11.9 °C -13.9 °C 1005.6 hPa NW 17.4 km/h 31.5 km/h 85 % 0 mm
07:17 -11.9 °C -13.9 °C 1005.6 hPa West 17.9 km/h 31.5 km/h 85 % 0 mm
07:20 -11.9 °C -14.1 °C 1006 hPa West 15.4 km/h 40.7 km/h 84 % 0 mm
07:25 -11.9 °C -13.9 °C 1006 hPa West 10.8 km/h 18.5 km/h 85 % 0 mm
07:26 -11.9 °C -13.9 °C 1006 hPa West 16.3 km/h 24.1 km/h 85 % 0 mm
07:31 -12 °C -14.2 °C 1006 hPa NNW 13.5 km/h 35.2 km/h 84 % 0 mm
07:36 -12.1 °C -14.2 °C 1006 hPa WSW 15.6 km/h 24.1 km/h 84 % 0 mm
07:41 -12.1 °C -14.3 °C 1006 hPa WSW 13.2 km/h 25.9 km/h 84 % 0 mm
07:47 -12.1 °C -14.4 °C 1006.3 hPa NW 16.4 km/h 31.5 km/h 83 % 0 mm
07:52 -12.1 °C -14.4 °C 1006.3 hPa SW 20 km/h 33.8 km/h 83 % 0 mm
07:53 -12.1 °C -14.4 °C 1006.3 hPa West 16.4 km/h 33.3 km/h 83 % 0 mm
07:58 -12.2 °C -14.3 °C 1006.3 hPa West 15.1 km/h 25.9 km/h 84 % 0 mm
08:04 -12.2 °C -14.3 °C 1006.7 hPa West 17.1 km/h 29.6 km/h 84 % 0 mm
08:08 -12.2 °C -14.3 °C 1006.3 hPa WNW 16.6 km/h 29.6 km/h 84 % 0 mm
08:14 -12.2 °C -14.3 °C 1006.7 hPa NW 9.7 km/h 18.5 km/h 84 % 0 mm
08:19 -12.2 °C -14.3 °C 1006.7 hPa West 14.5 km/h 33.8 km/h 84 % 0 mm
08:24 -12.1 °C -14.3 °C 1006.7 hPa West 18.7 km/h 44.4 km/h 84 % 0 mm
08:29 -12.2 °C -14.3 °C 1007 hPa West 18.8 km/h 32.2 km/h 84 % 0 mm
08:34 -12.1 °C -14.4 °C 1007 hPa WSW 13.7 km/h 27.8 km/h 83 % 0 mm
08:40 -12.1 °C -14.4 °C 1007 hPa WNW 16.6 km/h 35.2 km/h 83 % 0 mm
08:43 -12.2 °C -14.4 °C 1006.7 hPa West 11.7 km/h 25.9 km/h 83 % 0 mm
08:47 -12.1 °C -14.4 °C 1006.7 hPa WNW 15.1 km/h 31.5 km/h 83 % 0 mm
08:52 -12.1 °C -14.4 °C 1007 hPa WSW 17.2 km/h 35.2 km/h 83 % 0 mm
08:58 -12.1 °C -14.4 °C 1007 hPa West 14 km/h 35.4 km/h 83 % 0 mm
09:03 -12.1 °C -14.3 °C 1007.3 hPa WNW 11.3 km/h 24.1 km/h 83 % 0 mm
09:08 -12.1 °C -14.3 °C 1007.3 hPa West 23.2 km/h 38.6 km/h 83 % 0 mm
09:09 -12.1 °C -14.3 °C 1007 hPa West 25.3 km/h 31.5 km/h 83 % 0 mm
09:14 -12 °C -14.4 °C 1007.3 hPa WSW 14.6 km/h 31.5 km/h 82 % 0 mm
09:19 -11.8 °C -14.3 °C 1007.3 hPa WNW 20.6 km/h 31.5 km/h 82 % 0 mm
09:24 -11.8 °C -14.1 °C 1007.3 hPa WSW 10.6 km/h 24.1 km/h 83 % 0 mm
09:26 -11.8 °C -14.1 °C 1007.3 hPa WNW 15.4 km/h 42.6 km/h 83 % 0 mm
09:31 -11.7 °C -14.2 °C 1007.7 hPa West 16.1 km/h 37 km/h 82 % 0 mm
09:34 -11.7 °C -14.2 °C 1007.7 hPa WSW 22.2 km/h 37 km/h 82 % 0 mm
09:39 -11.7 °C -14.3 °C 1008 hPa NW 20.8 km/h 40.7 km/h 81 % 0 mm
09:44 -11.7 °C -14.1 °C 1008 hPa WNW 17.7 km/h 31.5 km/h 82 % 0 mm
09:49 -11.6 °C -14 °C 1008 hPa NNW 18.5 km/h 42.6 km/h 82 % 0 mm
09:54 -11.5 °C -13.9 °C 1008.4 hPa SW 18.2 km/h 35.2 km/h 82 % 0 mm
09:59 -11.5 °C -13.9 °C 1008 hPa West 18 km/h 40.7 km/h 82 % 0 mm
10:01 -11.5 °C -13.9 °C 1008.4 hPa WSW 19.2 km/h 42.6 km/h 82 % 0 mm
10:06 -11.4 °C -13.9 °C 1008 hPa WNW 15.3 km/h 22.5 km/h 82 % 0 mm
10:11 -11.3 °C -13.8 °C 1008 hPa NNW 12.9 km/h 31.5 km/h 82 % 0 mm
10:16 -11.3 °C -13.9 °C 1008 hPa NW 19.2 km/h 35.2 km/h 81 % 0 mm
10:17 -11.3 °C -14.1 °C 1008 hPa West 13.2 km/h 35.2 km/h 80 % 0 mm
10:22 -11.3 °C -14.1 °C 1008 hPa SW 17.2 km/h 38.9 km/h 80 % 0 mm
10:27 -11.2 °C -14 °C 1008.4 hPa WSW 17.1 km/h 25.9 km/h 80 % 0 mm
10:32 -11.2 °C -13.8 °C 1008.4 hPa West 20.6 km/h 31.5 km/h 81 % 0 mm
10:37 -11.2 °C -13.8 °C 1008.4 hPa West 19 km/h 29 km/h 81 % 0 mm
10:42 -11.2 °C -13.9 °C 1008.4 hPa SW 17.7 km/h 40.7 km/h 80 % 0 mm
10:48 -11.2 °C -13.9 °C 1008.4 hPa SW 10.1 km/h 20.4 km/h 80 % 0 mm
10:50 -11.2 °C -13.9 °C 1008.4 hPa WSW 17.4 km/h 32.2 km/h 80 % 0 mm
10:55 -11.2 °C -13.8 °C 1008.4 hPa West 18.7 km/h 31.5 km/h 81 % 0 mm
11:00 -11.1 °C -13.9 °C 1008.4 hPa WNW 10.6 km/h 24.1 km/h 80 % 0 mm
11:04 -11.1 °C -13.7 °C 1008.4 hPa WSW 19.5 km/h 27.8 km/h 81 % 0 mm
11:09 -11 °C -13.8 °C 1008.4 hPa NW 15.3 km/h 33.3 km/h 80 % 0 mm
11:14 -10.9 °C -13.5 °C 1008.4 hPa NW 13.7 km/h 32.2 km/h 81 % 0 mm
11:19 -10.8 °C -13.6 °C 1008.4 hPa West 9.8 km/h 22.5 km/h 80 % 0 mm
11:24 -10.8 °C -13.8 °C 1008.4 hPa NNW 26.4 km/h 33.3 km/h 79 % 0 mm
11:29 -10.9 °C -13.8 °C 1008 hPa WSW 17.7 km/h 29 km/h 79 % 0 mm
11:34 -10.9 °C -13.8 °C 1008 hPa West 20.3 km/h 37 km/h 79 % 0 mm
11:40 -10.9 °C -14 °C 1008 hPa WSW 17.1 km/h 25.9 km/h 78 % 0 mm
11:45 -10.9 °C -14.2 °C 1008 hPa WSW 12.6 km/h 31.5 km/h 77 % 0 mm
11:50 -10.9 °C -14.2 °C 1008.4 hPa WNW 16.1 km/h 33.3 km/h 77 % 0 mm
11:54 -10.9 °C -14.1 °C 1008 hPa NW 17.4 km/h 31.5 km/h 78 % 0 mm
11:59 -10.8 °C -13.8 °C 1008 hPa West 18.3 km/h 22.5 km/h 79 % 0 mm
12:05 -10.7 °C -13.6 °C 1008 hPa West 19.6 km/h 29.6 km/h 79 % 0 mm
12:09 -10.6 °C -13.8 °C 1008.4 hPa West 11.3 km/h 29 km/h 77 % 0 mm
12:14 -10.6 °C -13.9 °C 1008.4 hPa NNW 14.8 km/h 29.6 km/h 76 % 0 mm
12:17 -10.6 °C -13.8 °C 1008 hPa West 22.4 km/h 48.3 km/h 77 % 0 mm
12:22 -10.5 °C -13.9 °C 1008.4 hPa WNW 21.9 km/h 40.7 km/h 76 % 0 mm
12:27 -10.5 °C -13.9 °C 1008 hPa West 21.9 km/h 33.3 km/h 76 % 0 mm
12:32 -10.6 °C -13.9 °C 1008.4 hPa WNW 13.8 km/h 25.9 km/h 76 % 0 mm
12:37 -10.4 °C -14 °C 1008.4 hPa WSW 19.3 km/h 35.2 km/h 75 % 0 mm
12:43 -10.3 °C -13.9 °C 1008 hPa West 16.1 km/h 27.8 km/h 75 % 0 mm
12:46 -10.3 °C -13.9 °C 1008 hPa WNW 20.6 km/h 46.7 km/h 75 % 0 mm
12:50 -10.2 °C -14 °C 1008 hPa NNW 18.5 km/h 37 km/h 74 % 0 mm
12:53 -10.2 °C -14.1 °C 1008 hPa West 13.8 km/h 33.3 km/h 73 % 0 mm
12:58 -10.1 °C -13.8 °C 1008.4 hPa WSW 11.4 km/h 29.6 km/h 74 % 0 mm
13:03 -10.1 °C -14 °C 1008.4 hPa WNW 23.5 km/h 33.3 km/h 73 % 0 mm
13:07 -10.1 °C -13.8 °C 1008.4 hPa SW 19.6 km/h 44.4 km/h 74 % 0 mm
13:12 -10 °C -13.9 °C 1008.4 hPa NW 20.6 km/h 32.2 km/h 73 % 0 mm
13:13 -10 °C -13.9 °C 1008.4 hPa WNW 16.7 km/h 31.5 km/h 73 % 0 mm
13:18 -9.9 °C -13.9 °C 1008.4 hPa West 20.4 km/h 33.3 km/h 73 % 0 mm
13:21 -9.9 °C -14 °C 1008.4 hPa NW 22.7 km/h 42.6 km/h 72 % 0 mm
13:26 -9.9 °C -14.1 °C 1008.4 hPa West 17.9 km/h 32.2 km/h 72 % 0 mm
13:27 -9.9 °C -14.1 °C 1008.4 hPa NW 18.8 km/h 31.5 km/h 72 % 0 mm
13:32 -9.8 °C -13.8 °C 1008.4 hPa WNW 24.8 km/h 35.2 km/h 73 % 0 mm
13:37 -9.8 °C -14.1 °C 1008.7 hPa SW 17.7 km/h 31.5 km/h 71 % 0 mm
13:42 -9.8 °C -13.7 °C 1008.4 hPa West 17.5 km/h 25.9 km/h 73 % 0 mm
13:48 -9.7 °C -13.8 °C 1008.4 hPa SW 17.1 km/h 37 km/h 72 % 0 mm
13:49 -9.7 °C -13.8 °C 1008.7 hPa WNW 20.9 km/h 31.5 km/h 72 % 0 mm
13:50 -9.7 °C -14 °C 1008.7 hPa NW 17.5 km/h 29.6 km/h 71 % 0 mm
13:55 -9.8 °C -14.1 °C 1008.7 hPa NW 16.4 km/h 44.4 km/h 71 % 0 mm
14:00 -9.8 °C -14.4 °C 1009 hPa WNW 17.4 km/h 33.8 km/h 69 % 0 mm
14:04 -9.8 °C -14.1 °C 1009 hPa NNW 19.8 km/h 31.5 km/h 71 % 0 mm
14:09 -9.7 °C -14 °C 1009 hPa WNW 20.9 km/h 38.9 km/h 71 % 0 mm
14:10 -9.7 °C -14 °C 1009 hPa WSW 11.4 km/h 31.5 km/h 71 % 0 mm
14:11 -9.7 °C -14 °C 1009 hPa West 9.7 km/h 38.6 km/h 71 % 0 mm
14:15 -9.7 °C -13.6 °C 1009 hPa WNW 10.3 km/h 25.9 km/h 73 % 0 mm
14:16 -9.7 °C -13.8 °C 1009 hPa WSW 14.5 km/h 24.1 km/h 72 % 0 mm
14:20 -9.7 °C -14.1 °C 1009 hPa WNW 14.5 km/h 22.5 km/h 70 % 0 mm
14:25 -9.7 °C -14.3 °C 1009.4 hPa WNW 22 km/h 40.7 km/h 69 % 0 mm
14:30 -9.9 °C -14.6 °C 1009.4 hPa SW 17.1 km/h 32.2 km/h 69 % 0 mm
14:36 -10 °C -14.8 °C 1009.4 hPa North 14 km/h 25.9 km/h 68 % 0 mm
14:41 -10.1 °C -14.5 °C 1009.4 hPa West 14.5 km/h 38.6 km/h 70 % 0 mm
14:42 -10.1 °C -14.7 °C 1009.4 hPa WSW 15.3 km/h 27.8 km/h 69 % 0 mm
14:47 -10.2 °C -14.8 °C 1009.4 hPa WSW 14.2 km/h 25.9 km/h 69 % 0 mm
14:48 -10.2 °C -14.8 °C 1009 hPa WNW 15.8 km/h 30.6 km/h 69 % 0 mm
14:53 -10.3 °C -14.9 °C 1009.7 hPa SW 18 km/h 38.9 km/h 69 % 0 mm
14:58 -10.3 °C -14.9 °C 1009.7 hPa NW 23.7 km/h 41.8 km/h 69 % 0 mm
15:03 -10.3 °C -14.6 °C 1009.7 hPa West 15.9 km/h 31.5 km/h 71 % 0 mm
15:08 -10.3 °C -15.1 °C 1009.7 hPa North 15.8 km/h 29.6 km/h 68 % 0 mm
15:09 -10.3 °C -15.1 °C 1009.7 hPa West 10.3 km/h 27.4 km/h 68 % 0 mm
15:12 -10.3 °C -14.9 °C 1009.7 hPa NNW 16.7 km/h 37 km/h 69 % 0 mm
15:17 -10.3 °C -15.1 °C 1009.7 hPa NW 18.2 km/h 42.6 km/h 68 % 0 mm
15:22 -10.3 °C -15.1 °C 1009.7 hPa West 10.8 km/h 29.6 km/h 68 % 0 mm
15:27 -10.3 °C -15.1 °C 1010 hPa West 18.7 km/h 38.9 km/h 68 % 0 mm
15:32 -10.3 °C -15.3 °C 1010 hPa WNW 20.9 km/h 42.6 km/h 67 % 0 mm
15:34 -10.3 °C -15.1 °C 1010 hPa WNW 15.1 km/h 27.8 km/h 68 % 0 mm
15:39 -10.4 °C -15.3 °C 1010.4 hPa WNW 10 km/h 44.4 km/h 67 % 0 mm
15:44 -10.4 °C -15.2 °C 1010.4 hPa NW 19.5 km/h 31.5 km/h 68 % 0 mm
15:45 -10.3 °C -15.1 °C 1010.7 hPa WNW 15 km/h 27.8 km/h 68 % 0 mm
15:50 -10.3 °C -15.1 °C 1010.4 hPa WSW 8.5 km/h 16.1 km/h 68 % 0 mm
15:52 -10.3 °C -15.1 °C 1010.4 hPa WNW 14 km/h 29.6 km/h 68 % 0 mm
15:57 -10.3 °C -15.3 °C 1010.4 hPa WNW 17.4 km/h 35.2 km/h 67 % 0 mm
16:03 -10.3 °C -15.3 °C 1010.7 hPa NW 19.3 km/h 22.2 km/h 67 % 0 mm
16:08 -10.4 °C -15.5 °C 1010.7 hPa WSW 12.7 km/h 27.8 km/h 66 % 0 mm
16:11 -10.4 °C -15.4 °C 1010.7 hPa West 8.2 km/h 20.4 km/h 67 % 0 mm
16:17 -10.4 °C -15.4 °C 1010.7 hPa NNW 14.5 km/h 31.5 km/h 67 % 0 mm
16:22 -10.4 °C -15.7 °C 1010.7 hPa SW 16.4 km/h 38.9 km/h 65 % 0 mm
16:27 -10.4 °C -15.8 °C 1011.1 hPa WNW 22.5 km/h 40.7 km/h 65 % 0 mm
16:32 -10.4 °C -15.6 °C 1011.1 hPa WSW 18 km/h 22.2 km/h 66 % 0 mm
16:37 -10.4 °C -15.6 °C 1011.1 hPa SW 23 km/h 46.3 km/h 66 % 0 mm
16:42 -10.5 °C -16 °C 1010.7 hPa WSW 19.8 km/h 42.6 km/h 64 % 0 mm
16:47 -10.6 °C -15.9 °C 1011.1 hPa West 21.1 km/h 50 km/h 65 % 0 mm
16:50 -10.6 °C -15.5 °C 1011.1 hPa WSW 14.3 km/h 33.3 km/h 67 % 0 mm
16:55 -10.6 °C -15.7 °C 1011.4 hPa SW 15.4 km/h 27.4 km/h 66 % 0 mm
16:59 -10.6 °C -15.7 °C 1011.4 hPa NW 16.7 km/h 27.4 km/h 66 % 0 mm
17:04 -10.5 °C -15.4 °C 1011.4 hPa SSE 19.5 km/h 35.2 km/h 67 % 0 mm
17:09 -10.5 °C -15.6 °C 1011.4 hPa WNW 16.6 km/h 31.5 km/h 66 % 0 mm
17:14 -10.5 °C -15.8 °C 1011.7 hPa WNW 20.3 km/h 33.8 km/h 65 % 0 mm
17:19 -10.4 °C -15.6 °C 1012.1 hPa WSW 25.9 km/h 42.6 km/h 66 % 0 mm
17:22 -10.4 °C -15.6 °C 1011.7 hPa West 16.4 km/h 44.4 km/h 66 % 0 mm
17:26 -10.4 °C -15.5 °C 1011.7 hPa WNW 24.1 km/h 45.1 km/h 66 % 0 mm
17:31 -10.4 °C -15.3 °C 1012.1 hPa West 16.4 km/h 42.6 km/h 67 % 0 mm
17:36 -10.4 °C -15.3 °C 1012.1 hPa NNW 19.3 km/h 31.5 km/h 67 % 0 mm
17:40 -10.4 °C -15.7 °C 1012.1 hPa NNW 24.3 km/h 38.9 km/h 65 % 0 mm
17:47 -10.4 °C -16.1 °C 1012.4 hPa WNW 23.7 km/h 38.9 km/h 63 % 0 mm
17:50 -10.4 °C -15.8 °C 1012.4 hPa WNW 9.3 km/h 22.2 km/h 65 % 0 mm
17:55 -10.4 °C -15.9 °C 1012.4 hPa WSW 17.2 km/h 37 km/h 64 % 0 mm
17:56 -10.4 °C -15.9 °C 1012.4 hPa WNW 19.3 km/h 37 km/h 64 % 0 mm
18:01 -10.4 °C -15.9 °C 1012.8 hPa West 10 km/h 35.2 km/h 64 % 0 mm
18:06 -10.5 °C -16.2 °C 1012.8 hPa WSW 18.7 km/h 35.2 km/h 63 % 0 mm
18:10 -10.6 °C -16.4 °C 1012.8 hPa WNW 15.8 km/h 31.5 km/h 62 % 0 mm
18:15 -10.6 °C -16.4 °C 1012.8 hPa NW 13.5 km/h 25.9 km/h 62 % 0 mm
18:21 -10.6 °C -16.1 °C 1013.1 hPa WNW 14.8 km/h 31.5 km/h 64 % 0 mm
18:25 -10.6 °C -15.9 °C 1013.1 hPa WNW 13.4 km/h 35.2 km/h 65 % 0 mm
18:31 -10.5 °C -15.6 °C 1013.1 hPa WNW 11.3 km/h 29 km/h 66 % 0 mm
18:36 -10.5 °C -16 °C 1013.1 hPa WNW 14.3 km/h 38.9 km/h 64 % 0 mm
18:41 -10.6 °C -16.1 °C 1013.4 hPa NW 18.3 km/h 37 km/h 64 % 0 mm
18:46 -10.5 °C -16 °C 1013.4 hPa WNW 8.7 km/h 18.5 km/h 64 % 0 mm
18:51 -10.6 °C -16.1 °C 1013.8 hPa WNW 16.4 km/h 31.5 km/h 64 % 0 mm
18:54 -10.6 °C -16.2 °C 1013.8 hPa WSW 22.9 km/h 31.5 km/h 63 % 0 mm
18:59 -10.6 °C -16.3 °C 1013.8 hPa WNW 18.2 km/h 37 km/h 63 % 0 mm
19:04 -10.7 °C -16.3 °C 1013.8 hPa SW 18 km/h 31.5 km/h 63 % 0 mm
19:07 -10.7 °C -16.4 °C 1013.8 hPa NW 24.6 km/h 38.9 km/h 63 % 0 mm
19:12 -10.7 °C -16.4 °C 1013.8 hPa West 16.1 km/h 31.5 km/h 63 % 0 mm
19:13 -10.7 °C -16.4 °C 1013.8 hPa NW 15.9 km/h 31.5 km/h 63 % 0 mm
19:18 -10.7 °C -16.4 °C 1013.8 hPa WNW 16.9 km/h 31.5 km/h 63 % 0 mm
19:23 -10.7 °C -16.2 °C 1013.8 hPa West 15.4 km/h 35.2 km/h 64 % 0 mm
19:26 -10.7 °C -16 °C 1014.1 hPa SSW 14.3 km/h 32.2 km/h 65 % 0 mm
19:31 -10.7 °C -16.3 °C 1014.1 hPa SW 16.7 km/h 31.5 km/h 63 % 0 mm
19:34 -10.7 °C -16.2 °C 1014.1 hPa West 12.7 km/h 31.5 km/h 64 % 0 mm
19:39 -10.7 °C -16.2 °C 1014.1 hPa NNW 19 km/h 29.6 km/h 64 % 0 mm
19:42 -10.7 °C -16.2 °C 1014.1 hPa WSW 17.4 km/h 37 km/h 64 % 0 mm
19:47 -10.7 °C -16.2 °C 1014.1 hPa WSW 14.8 km/h 46.3 km/h 64 % 0 mm
19:49 -10.8 °C -16.4 °C 1014.1 hPa West 13.2 km/h 25.9 km/h 63 % 0 mm
19:55 -10.8 °C -16.1 °C 1014.1 hPa West 10.8 km/h 25.9 km/h 65 % 0 mm
20:00 -10.8 °C -16.1 °C 1014.4 hPa WNW 13.5 km/h 31.5 km/h 65 % 0 mm
20:05 -10.8 °C -16.1 °C 1014.4 hPa WNW 17.2 km/h 29.6 km/h 65 % 0 mm
20:07 -10.8 °C -15.9 °C 1014.4 hPa SW 17.1 km/h 33.8 km/h 66 % 0 mm
20:12 -10.8 °C -16.3 °C 1014.4 hPa SW 17.5 km/h 29.6 km/h 64 % 0 mm
20:13 -10.9 °C -16.4 °C 1014.8 hPa NW 20 km/h 31.5 km/h 64 % 0 mm
20:18 -10.9 °C -16.4 °C 1015.1 hPa NW 28.5 km/h 50 km/h 64 % 0 mm
20:26 -11 °C -16.8 °C 1014.8 hPa NW 16.3 km/h 33.3 km/h 62 % 0 mm
20:27 -11 °C -16.7 °C 1014.8 hPa NW 16.4 km/h 35.2 km/h 63 % 0 mm
20:32 -11 °C -16.7 °C 1014.4 hPa WNW 17.1 km/h 31.5 km/h 63 % 0 mm
20:34 -11 °C -16.8 °C 1014.8 hPa WNW 16.7 km/h 29.6 km/h 62 % 0 mm
20:39 -11.1 °C -16.9 °C 1014.8 hPa NNW 12.9 km/h 40.7 km/h 62 % 0 mm
20:40 -11.1 °C -16.9 °C 1014.8 hPa SW 11.3 km/h 40.7 km/h 62 % 0 mm
20:45 -11.1 °C -16.7 °C 1014.8 hPa SW 19 km/h 37 km/h 63 % 0 mm
20:50 -11.1 °C -16.8 °C 1015.1 hPa West 14.8 km/h 33.3 km/h 63 % 0 mm
20:55 -11.1 °C -16.9 °C 1015.1 hPa NW 19.2 km/h 40.7 km/h 62 % 0 mm
20:59 -11.1 °C -16.7 °C 1015.1 hPa WSW 8.4 km/h 16.7 km/h 63 % 0 mm
21:04 -11.1 °C -16.8 °C 1015.5 hPa West 22.9 km/h 40.7 km/h 63 % 0 mm
21:09 -11.1 °C -16.8 °C 1015.5 hPa West 17.5 km/h 35.2 km/h 63 % 0 mm
21:10 -11.1 °C -16.6 °C 1015.5 hPa WSW 17.9 km/h 24.1 km/h 64 % 0 mm
21:15 -11.1 °C -16.4 °C 1015.5 hPa WNW 16.6 km/h 31.5 km/h 65 % 0 mm
21:20 -11.1 °C -16.6 °C 1015.5 hPa WSW 18.8 km/h 29.6 km/h 64 % 0 mm
21:25 -11.2 °C -16.8 °C 1015.5 hPa West 18 km/h 31.5 km/h 63 % 0 mm
21:30 -11.2 °C -16.9 °C 1015.8 hPa NW 11.3 km/h 29 km/h 63 % 0 mm
21:31 -11.2 °C -16.9 °C 1015.5 hPa West 14.8 km/h 29.6 km/h 63 % 0 mm
21:36 -11.3 °C -16.9 °C 1015.8 hPa WNW 23 km/h 42.6 km/h 63 % 0 mm
21:41 -11.3 °C -17.4 °C 1015.5 hPa WNW 17.4 km/h 31.5 km/h 61 % 0 mm
21:46 -11.4 °C -17.2 °C 1015.8 hPa WNW 16.3 km/h 31.5 km/h 62 % 0 mm
21:49 -11.4 °C -17.2 °C 1015.8 hPa WSW 10.9 km/h 31.5 km/h 62 % 0 mm
21:54 -11.4 °C -16.8 °C 1015.8 hPa West 8.2 km/h 24.1 km/h 64 % 0 mm
21:59 -11.4 °C -17.1 °C 1015.8 hPa SW 19 km/h 25.9 km/h 63 % 0 mm
22:04 -11.4 °C -17.1 °C 1016.1 hPa NW 20.3 km/h 31.5 km/h 63 % 0 mm
22:09 -11.5 °C -17.2 °C 1015.8 hPa NW 20.3 km/h 35.4 km/h 63 % 0 mm
22:14 -11.5 °C -17.2 °C 1015.8 hPa WNW 9 km/h 25.9 km/h 63 % 0 mm
22:17 -11.5 °C -16.9 °C 1016.1 hPa WSW 15.4 km/h 29 km/h 64 % 0 mm
22:22 -11.6 °C -17.2 °C 1016.1 hPa WNW 13.4 km/h 32.2 km/h 63 % 0 mm
22:27 -11.6 °C -17.4 °C 1016.1 hPa WNW 15.3 km/h 24.1 km/h 62 % 0 mm
22:32 -11.7 °C -17.5 °C 1016.1 hPa WNW 11.9 km/h 24.1 km/h 62 % 0 mm
22:37 -11.8 °C -17.4 °C 1016.1 hPa West 10.8 km/h 25.9 km/h 63 % 0 mm
22:41 -11.8 °C -17.2 °C 1016.1 hPa WNW 22.4 km/h 33.3 km/h 64 % 0 mm
22:51 -11.9 °C -17.9 °C 1016.5 hPa NW 19.6 km/h 31.5 km/h 61 % 0 mm
22:56 -11.9 °C -17.9 °C 1016.5 hPa West 10.8 km/h 24.1 km/h 61 % 0 mm
23:01 -11.9 °C -17.7 °C 1016.5 hPa West 11.3 km/h 33.3 km/h 62 % 0 mm
23:06 -11.9 °C -17.7 °C 1016.5 hPa SW 15 km/h 22.2 km/h 62 % 0 mm
23:11 -11.9 °C -17.9 °C 1016.5 hPa NW 14.8 km/h 31.5 km/h 61 % 0 mm
23:16 -11.9 °C -17.7 °C 1016.5 hPa West 12.6 km/h 30.6 km/h 62 % 0 mm
23:22 -11.9 °C -17.8 °C 1016.5 hPa WSW 12.2 km/h 24.1 km/h 62 % 0 mm
23:27 -11.9 °C -17.8 °C 1016.8 hPa SW 12.1 km/h 29.6 km/h 62 % 0 mm
23:32 -11.9 °C -17.9 °C 1016.5 hPa SW 14.2 km/h 22.2 km/h 61 % 0 mm
23:37 -12 °C -17.8 °C 1016.5 hPa West 14.6 km/h 31.5 km/h 62 % 0 mm
23:42 -12 °C -17.8 °C 1016.8 hPa WSW 21.1 km/h 41.8 km/h 62 % 0 mm
23:45 -12.1 °C -17.9 °C 1016.8 hPa West 12.7 km/h 18.5 km/h 62 % 0 mm
23:50 -12.1 °C -17.7 °C 1016.8 hPa WSW 7.9 km/h 24.1 km/h 63 % 0 mm
23:55 -12.1 °C -17.7 °C 1016.8 hPa WNW 19.6 km/h 35.2 km/h 63 % 0 mm
Crab Meadow Weather
Compliments of Weather Underground - 3.25 mb

Script developed by  Jim McMurry - jmcmurry@mwt.net Adapted for the template by  Wim van der Kuil - Leuven-Template.eu

Cloud Base: The cloud base is the distance from the sea level to the base of the clouds. It is estimated using the current temperature and humidity to indicate an altitude where the air could be cold enough for clouds to form. There may or may not be clouds at that altitude (or at any altitude)